Location: Bluff Heights
(33.7692°N, 118.1592°W)
Time: 08:45:20
(UTC+00:00)

Tiros 1 - Pass Details

Date: 26 July 2021
Orbit: 630 x 663 km, 48.4° (Epoch: 22 September)

Event Time Altitude Azimuth Distance (km) Brightness Sun altitude
Rises 04:13:33 0° 249° (WSW) 2,969 11.0 -14.4°
Reaches altitude 10° 04:16:00 10° 255° (WSW) 2,055 10.3 -14.8°
Maximum altitude 04:20:31 44° 328° (NNW) 903 8.4 -15.6°
Drops below altitude 10° 04:25:01 10° 40° (NE) 2,042 9.7 -16.3°
Sets 04:27:27 0° 48° (NE) 2,947 10.4 -16.7°
